Simultaneous Nadir Overpasses (SNOs) Predictions

Prediction of SNOs between GOES-17 and AQUA Satellite Orbit:

Table of predicted SNOs for the next 14.0 days since TLE Epoch: 4/10/2020
Index Date Time (GOES-17) GOES-17 Lat,Lon AQUA Lat,Lon Distance(km) Time Diff (sec)
1 04/12/2020 10:31:00 -0.03,-137.20 -0.65,-134.23 338.01 80
2 04/12/2020 22:52:23 0.02,-137.20 -0.46,-139.42 252.62 80
3 04/14/2020 22:42:51 0.02,-137.19 0.14,-136.46 82.29 80
4 04/16/2020 22:30:40 0.01,-137.17 0.81,-133.51 416.82 80
5 04/17/2020 10:51:55 -0.01,-137.17 0.31,-138.66 169.67 80
6 04/19/2020 10:37:03 -0.01,-137.15 -0.30,-135.70 164.52 80
7 04/19/2020 22:58:27 0.01,-137.14 -0.82,-140.89 426.88 80
8 04/21/2020 10:24:51 -0.01,-137.13 -0.91,-132.74 498.26 80
9 04/21/2020 22:46:16 0.01,-137.12 -0.14,-137.94 93.26 80
10 04/23/2020 22:36:44 0.01,-137.09 0.48,-134.98 239.82 80
11 04/24/2020 10:57:59 -0.01,-137.08 0.64,-140.14 346.76 80




NCC Satellite Simultaneous Nadir Overpasses (SNOs) Prediction Service
